Tracking 19717 objects as of 25-Jun-2019
HD Live streaming from Space Station
objects crossing your sky now

COSMOS 1779 (GLONASS)

Track COSMOS 1779 (GLONASS) now!
COSMOS 1779 (GLONASS) is classified as:


NORAD ID: 16962
Int'l Code: 1986-071B
Perigee: 19,112.0 km
Apogee: 19,161.9 km
Inclination: 64.1 °
Period: 675.7 minutes
Semi major axis: 25507 km
RCS: 1.5271 m2 (large)
Launch date: September 16, 1986
Source: Commonwealth of Independent States (former USSR) (CIS)
Launch site: TYURATAM MISSILE AND SPACE COMPLEX (TTMTR)
aabbcc
Your satellite tracking list
Your tracking list is empty




NASA's NSSDC Master Catalog

Two Line Element Set (TLE):
1 16962U 86071B   19175.70854539 +.00000091 +00000-0 +00000-0 0  9990
2 16962 064.1187 160.0697 0009785 026.7201 239.7519 02.13103140254911
Source of the keplerian elements: AFSPC